Probability
0 0 0 0 0 0 0 0 0 0 0 0 0 0 0 0 0 0 0 0 0 0 0 0 0 0 0 0 0 0 0 0 0 0 0 0 0 0 0 0 0 0 0
0 0 0 0 0 0 0 0 0 0 0 0 0 0 0 0 0 0 0 0 0 0 0 0 0 0 0 0 0 0 0 0 0 0 0 0 0 0 0 0 0 0 0
0 0 0 0 0 0 0 0 0 0 0 0 0 0 0 0 0 0 0 0 0 0 0 0 0 0 0 0 0 0 0 0 0 0 0 0 0 0 0 0 0 0 0
0 0 0 0 0 0 0 0 0 0 0 0 0 0 0 0 0 0 0 0 0 0 0 0 0 0 0 0 0 0 0 0 0 0 0 0 0 0 0 0 0 0 0
0 0 0 0 0 0 0 0 0 0 0 0 0 0 0 0 0 0 0 0 0 0 0 0 0 0 0 0 0 0 0 0 0 0 0 0 0 0 0 0 0 0 0
0 0 0 0 0 0 0 0 0 0 0 0 0 0 0 0 0 0 0 0 0 0 0 0 0 0 0 0 0 0 0 0 0 0 0 0 0 0 0 0 0 0 0
0 0 0 0 0 0 0 0 0 0 0 0 0 0 0 0 0 0 0 0 0 0 0 0 0 0 0 0 0 0 0 0 0 0 0 0 0 0 0 0 0 0 0
0 0 0 0 0 0 0 0 0 0 0 0 0 0 0 0 0 0 0 0 0 0 0 0 0 0 0 0 0 0 0 0 0 0 0 0 0 0 0 0 0 0 0
0 0 0 0 0 0 0 0 0 0 0 0 0 0 0 0 0 0 0 0 0 0 0 0 0 0 0 0 0 0 0 0 0 0 0 0 0 0 0 0 0 0 0
0 0 0 0 0 0 0 0 0 0 0 0 0 0 0 0 0 0 0 0 0 0 0 0 0 0 0 0 0 0 0 0 0 0 0 0 0 0 0 0 0 0 0
0 0 0 0 0 0 0 0 0 0 0 0 0 0 0 0 0 0 0 0 0 0 0 0 0 0 0 0 0 0 0 0 0 0 0 0 0 0 0 0 0 0 0
0 0 0 0 0 0 0 0 0 0 0 0 0 0 0 0 0 0 0 0 0 0 0 0 0 0 0 0 0 0 0 0 0 0 0 0 0 0 0 0 0 0 0
0 0 0 0 0 0 0 0 0 0 0 0 0 0 0 0 0 0 0 0 0 0 0 0 0 0 0 0 0 0 0 0 0 0 0 0 0 0 0 0 0 0 0
0 0 0 0 0 0 0 0 0 0 0 0 0 0 0 0 0 0 0 0 0 0 0 0 0 0 0 0 0 0 0 0 0 0 0 0 0 0 0 0 0 0 0
0 0 0 0 0 0 0 0 0 0 0 0 0 0 0 0 0 0 0 0 0 0 0 0 0 0 0 0 0 0 0 0 0 0 0 0 0 0 0 0 0 0 0
0 0 0 0 0 0 0 0 0 0 0 0 0 0 0 0 0 0 0 0 0 0 0 0 0 0 0 0 0 0 0 0 0 0 0 0 0 0 0 0 0 0 0
0 0 0 0 0 0 0 0 0 0 0 0 0 0 0 0 0 0 0 0 0 0 0 0 0 0 0 0 0 0 0 0 0 0 0 0 0 0 0 0 0 0 0
0 0 0 0 0 0 0 0 0 0 0 0 0 0 0 0 0 0 0 0 0 0 0 0 0 0 0 0 0 0 0 0 0 0 0 0 0 0 0 0 0 0 0
0 0 0 0 0 0 0 0 0 0 0 0 0 0 0 0 0 0 0 0 0 0 0 0 0 0 0 0 0 0 0 0 0 0 0 0 0 0 0 0 0 0 0
0 0 0 0 0 0 0 0 0 0 0 0 0 0 0 0 0 0 0 0 0 0 0 0 0 0 0 0 0 0 0 0 0 0 0 0 0 0 0 0 0 0 0
0 0 0 0 0 0 0 0 0 0 0 0 0 0 0 0 0 0 0 0 0 0 0 0 0 0 0 0 0 0 0 0 0 0 0 0 0 0 0 0 0 0 0
0 0 0 0 0 0 0 0 0 0 0 0 0 0 0 0 0 0 0 0 0 0 0 0 0 0 0 0 0 0 0 0 0 0 0 0 0 0 0 0 0 0 0
0 0 0 0 0 0 0 0 0 0 0 0 0 0 0 0 0 0 0 0 0 0 0 0 0 0 0 0 0 0 0 0 0 0 0 0 0 0 0 0 0 0 0
0 0 0 0 0 0 0 0 0 0 0 0 0 0 0 0 0 0 0 0 0 0 0 0 0 0 0 0 0 0 0 0 0 0 0 0 0 0 0 0 0 0 0
0 0 0 0 0 0 0 0 0 0 0 0 0 0 0 0 0 0 0 0 0 0 0 0 0 0 0 0 0 0 0 0 0 0 0 0 0 0 0 0 0 0 0
0 0 0 0 0 0 0 0 0 0 0 0 0 0 0 0 0 0 0 0 0 0 0 0 0 0 0 0 0 0 0 0 0 0 0 0 0 0 0 0 0 0 0
Height
5667 5665 5663 5661 5659 5658 5656 5655 5654 5652 5651 5650 5649 5649 5649 5648 5648 5647 5647 5648 5648 5649 5651 5652 5654 5656 5657 5659 5660 5661 5662 5664 5666 5669 5670 5671 5672 5673 5675 5676 5676 5677 5678
5658 5656 5654 5652 5650 5648 5646 5645 5644 5642 5641 5639 5638 5637 5636 5636 5636 5635 5635 5635 5636 5637 5638 5640 5642 5643 5644 5646 5647 5648 5649 5650 5652 5655 5656 5657 5659 5660 5661 5661 5662 5663 5664
5648 5646 5644 5642 5640 5639 5637 5635 5633 5632 5630 5628 5627 5626 5625 5624 5624 5624 5624 5624 5625 5625 5626 5628 5629 5630 5632 5633 5634 5634 5635 5637 5638 5640 5642 5643 5644 5645 5646 5647 5648 5648 5649
5638 5636 5634 5632 5630 5629 5627 5625 5623 5622 5620 5618 5616 5615 5615 5614 5614 5614 5614 5614 5614 5615 5615 5616 5617 5618 5619 5620 5621 5622 5623 5623 5625 5626 5627 5629 5630 5631 5631 5633 5633 5633 5634
5628 5626 5624 5622 5620 5618 5617 5615 5613 5612 5610 5609 5607 5606 5605 5605 5604 5604 5604 5604 5604 5604 5604 5605 5605 5606 5606 5607 5608 5609 5609 5610 5611 5612 5613 5614 5615 5616 5617 5618 5619 5619 5619
5617 5615 5613 5612 5610 5608 5607 5605 5604 5603 5601 5599 5598 5596 5595 5595 5594 5594 5593 5593 5593 5593 5594 5594 5594 5594 5594 5594 5595 5596 5596 5597 5598 5598 5599 5600 5601 5601 5602 5602 5603 5604 5605
5607 5605 5603 5601 5600 5599 5597 5596 5595 5593 5591 5590 5588 5587 5586 5585 5584 5583 5583 5582 5582 5582 5582 5582 5583 5582 5582 5582 5582 5583 5583 5583 5584 5585 5585 5585 5586 5586 5587 5587 5586 5586 5588
5597 5595 5593 5592 5591 5589 5588 5587 5585 5584 5582 5580 5578 5577 5576 5575 5574 5573 5572 5572 5572 5571 5571 5571 5571 5571 5570 5570 5570 5570 5570 5570 5570 5571 5571 5571 5571 5571 5571 5570 5570 5570 5570
5587 5585 5584 5582 5581 5580 5579 5577 5576 5575 5573 5571 5569 5567 5566 5565 5564 5563 5562 5562 5561 5561 5560 5559 5559 5559 5559 5558 5558 5558 5558 5557 5557 5557 5557 5557 5556 5556 5555 5555 5554 5554 5555
5577 5576 5574 5573 5572 5571 5570 5568 5567 5566 5564 5562 5560 5559 5557 5556 5555 5554 5553 5552 5552 5551 5550 5549 5548 5548 5547 5547 5547 5547 5546 5546 5546 5545 5544 5544 5543 5542 5541 5540 5540 5539 5538
5568 5567 5565 5564 5562 5561 5560 5559 5558 5557 5556 5554 5552 5550 5549 5547 5546 5545 5543 5542 5541 5541 5540 5539 5538 5537 5537 5536 5536 5536 5535 5535 5534 5534 5533 5532 5530 5529 5528 5527 5525 5524 5523
5559 5558 5556 5555 5553 5552 5551 5550 5550 5548 5547 5545 5543 5542 5540 5538 5537 5536 5534 5532 5531 5531 5530 5529 5529 5528 5527 5526 5526 5525 5524 5523 5523 5522 5521 5520 5518 5516 5515 5513 5511 5510 5508
5550 5549 5548 5546 5545 5544 5543 5542 5541 5540 5539 5537 5535 5533 5532 5530 5528 5527 5525 5523 5522 5522 5521 5520 5519 5518 5517 5517 5516 5515 5514 5513 5511 5510 5509 5508 5506 5504 5502 5500 5497 5496 5494
5542 5540 5539 5538 5537 5535 5534 5533 5532 5531 5530 5528 5527 5525 5523 5522 5520 5518 5517 5515 5514 5513 5512 5511 5510 5509 5508 5507 5506 5505 5503 5502 5500 5499 5497 5495 5493 5490 5488 5486 5484 5482 5480
5533 5532 5530 5529 5528 5527 5526 5525 5524 5522 5521 5520 5518 5517 5515 5513 5512 5510 5508 5507 5505 5504 5503 5502 5501 5499 5498 5497 5496 5494 5492 5491 5489 5487 5485 5482 5480 5477 5474 5472 5470 5468 5466
5524 5523 5522 5521 5520 5519 5518 5516 5515 5514 5512 5511 5509 5508 5506 5504 5502 5501 5499 5497 5496 5494 5493 5492 5491 5489 5488 5487 5485 5483 5481 5479 5477 5475 5472 5469 5467 5464 5461 5459 5457 5454 5453
5515 5514 5513 5512 5511 5510 5509 5508 5506 5505 5503 5501 5500 5498 5496 5495 5493 5491 5490 5488 5486 5485 5483 5482 5481 5479 5478 5476 5475 5473 5471 5468 5465 5463 5460 5457 5454 5451 5448 5446 5443 5441 5439
5505 5505 5504 5503 5502 5501 5500 5499 5497 5496 5494 5492 5491 5489 5487 5485 5483 5481 5480 5478 5476 5475 5473 5472 5470 5469 5467 5465 5464 5461 5459 5456 5453 5451 5448 5444 5441 5438 5436 5433 5431 5428 5426
5496 5495 5494 5493 5492 5492 5490 5489 5488 5486 5485 5483 5481 5479 5477 5475 5474 5472 5470 5468 5467 5465 5463 5461 5459 5458 5456 5454 5452 5450 5447 5445 5442 5439 5436 5432 5429 5426 5423 5420 5418 5416 5413
5486 5485 5484 5484 5483 5482 5480 5479 5478 5476 5475 5473 5471 5469 5467 5466 5464 5462 5460 5458 5456 5454 5452 5450 5448 5446 5444 5442 5440 5438 5435 5433 5430 5427 5423 5420 5417 5413 5411 5408 5406 5403 5400
5477 5476 5475 5474 5473 5472 5471 5469 5468 5466 5465 5463 5461 5459 5457 5455 5453 5452 5450 5448 5446 5444 5442 5440 5438 5435 5433 5431 5428 5426 5423 5420 5417 5415 5411 5408 5405 5401 5398 5396 5393 5390 5387
5467 5466 5465 5464 5463 5462 5460 5459 5457 5456 5454 5452 5450 5448 5446 5445 5443 5441 5439 5437 5435 5433 5431 5429 5426 5424 5421 5419 5416 5414 5411 5408 5405 5402 5399 5396 5393 5390 5387 5383 5380 5377 5374
5456 5455 5454 5453 5452 5451 5449 5448 5446 5445 5443 5441 5439 5438 5436 5434 5432 5430 5428 5426 5424 5421 5419 5417 5415 5412 5410 5407 5405 5402 5399 5396 5393 5390 5387 5384 5381 5378 5375 5372 5368 5365 5362
5446 5445 5443 5442 5441 5440 5438 5437 5435 5433 5432 5430 5428 5427 5425 5423 5421 5419 5417 5415 5412 5410 5408 5405 5403 5401 5398 5395 5393 5390 5388 5385 5382 5379 5376 5373 5370 5366 5363 5360 5357 5354 5351
5435 5433 5432 5431 5429 5428 5427 5425 5424 5422 5420 5419 5417 5416 5414 5412 5410 5408 5406 5404 5401 5399 5397 5394 5392 5389 5387 5384 5382 5379 5377 5374 5371 5368 5365 5362 5359 5355 5352 5349 5346 5343 5340
5423 5422 5420 5419 5418 5416 5415 5413 5412 5410 5409 5407 5406 5404 5403 5401 5399 5397 5395 5393 5391 5388 5386 5383 5381 5378 5376 5373 5371 5369 5366 5363 5360 5357 5354 5351 5348 5345 5342 5339 5336 5333 5331
Wind_Speed
37 37 37 37 38 38 38 37 37 37 38 38 39 40 40 40 40 41 42 44 43 44 45 45 45 46 47 47 48 49 50 51 51 50 50 49 50 49 49 49 50 50 51
37 37 36 37 37 37 37 37 37 37 37 37 38 39 39 39 39 40 41 41 41 42 43 43 44 45 45 46 47 47 49 50 49 49 49 49 50 49 49 50 51 52 50
37 37 36 36 36 36 36 36 36 36 35 36 36 37 37 36 36 36 36 36 37 39 40 41 42 43 44 45 45 46 47 48 48 49 49 49 50 51 51 51 52 53 52
36 37 36 36 36 36 35 35 35 34 34 34 33 33 33 33 33 33 34 35 36 37 38 38 40 41 43 45 46 46 46 46 47 48 49 49 50 51 52 52 51 52 52
37 37 36 36 35 34 34 34 33 33 32 32 31 31 32 32 33 34 35 36 37 37 37 38 39 41 42 43 43 43 44 45 47 47 49 49 50 51 52 52 52 52 53
36 36 36 35 34 33 33 33 32 32 32 32 32 31 31 32 34 35 35 36 36 36 36 37 38 39 40 41 42 42 43 43 45 46 47 48 49 49 50 51 52 52 53
35 35 35 34 34 34 33 32 32 32 32 32 32 32 32 33 34 35 35 34 35 35 36 37 37 38 39 40 41 42 43 43 44 45 45 47 47 47 48 51 52 53 53
35 34 33 33 33 33 33 32 32 32 31 32 32 32 32 32 33 33 34 34 34 35 36 37 37 37 38 39 40 41 41 42 43 43 44 44 45 46 47 48 49 51 52
34 33 32 32 32 32 31 31 31 30 30 30 30 30 31 31 31 31 32 32 33 34 34 34 35 36 36 37 38 38 38 39 40 41 43 44 45 46 46 47 47 48 49
33 32 31 31 31 30 30 29 29 29 29 29 29 29 30 30 30 30 31 31 31 31 31 32 33 33 34 35 35 35 36 37 38 39 40 41 42 43 44 45 46 47 47
31 31 30 30 30 30 29 29 28 28 28 28 28 29 29 29 30 30 30 30 30 30 30 31 31 31 32 32 33 34 34 35 36 37 38 39 41 43 44 45 47 47 47
31 30 29 28 28 28 28 29 28 28 28 28 27 28 29 29 29 29 29 29 30 30 30 30 30 31 31 32 32 33 33 34 35 36 37 39 40 42 43 45 46 47 47
30 29 28 28 27 26 26 27 27 28 28 28 28 27 27 28 28 27 28 28 28 29 30 30 30 30 30 31 32 33 33 34 36 37 38 39 41 42 43 44 45 46 46
29 28 28 28 27 26 27 27 27 27 28 28 28 28 27 27 27 28 28 28 28 29 30 30 30 30 30 31 32 33 34 36 37 38 39 40 42 43 44 44 44 44 44
29 28 28 27 27 27 27 26 27 27 28 28 28 29 28 28 28 28 28 29 29 30 30 30 30 30 31 31 33 34 35 36 37 39 40 41 41 42 42 43 43 43 44
29 28 28 28 27 27 27 27 27 28 28 28 28 29 30 30 30 30 30 30 30 31 31 31 32 32 32 33 33 34 36 37 38 40 41 41 41 41 41 42 43 42 42
29 29 28 28 28 28 28 28 28 28 28 29 30 30 31 31 31 31 32 32 32 32 32 32 33 33 34 35 35 35 36 38 38 39 39 39 40 40 40 41 41 40 41
30 29 29 29 28 28 29 29 29 29 30 30 31 31 31 31 31 31 32 32 32 33 33 33 33 34 35 35 36 36 36 37 37 38 38 40 40 40 40 40 40 40 41
30 29 29 29 29 29 30 30 30 31 31 32 32 32 32 32 32 32 33 32 32 33 33 34 34 35 36 36 37 37 37 37 38 38 39 40 40 40 40 41 41 41 41
29 29 29 29 29 30 30 31 31 31 32 32 33 33 33 33 33 33 33 33 33 33 33 34 34 35 36 36 38 38 39 39 39 39 40 40 40 40 40 40 40 41 41
29 29 29 30 30 30 31 32 32 33 33 33 34 34 34 34 33 33 33 33 33 34 34 34 34 35 36 37 38 39 39 39 39 39 40 39 39 39 39 40 40 40 40
30 30 31 31 31 32 32 33 33 34 35 34 34 34 34 34 34 34 34 34 35 35 35 36 36 36 36 37 37 38 38 38 39 39 39 38 38 38 38 39 39 39 39
32 32 32 32 33 33 34 34 34 35 35 34 34 34 34 34 34 34 35 35 35 35 36 36 36 36 36 36 37 37 37 37 37 37 37 37 37 38 38 38 38 38 38
33 33 34 34 34 34 35 35 35 35 35 35 34 34 34 34 34 35 35 35 35 35 35 35 35 35 36 36 36 36 36 36 36 36 36 36 36 37 37 37 37 36 35
35 35 35 36 36 35 35 35 35 35 35 35 34 34 34 35 34 35 34 34 34 34 35 35 35 35 36 35 35 35 35 35 35 35 35 35 35 36 36 35 35 34 33
36 36 36 37 37 36 36 36 36 36 35 35 35 35 35 35 34 34 34 34 34 34 34 34 34 34 34 34 34 34 34 34 34 34 34 34 34 34 34 33 32 31 30
Wind_Direction
282 283 283 283 282 282 281 280 280 280 279 278 275 273 272 272 271 269 268 267 266 264 263 261 261 262 261 261 261 262 262 263 264 263 262 262 263 263 263 264 264 265 265
283 284 284 284 284 283 282 281 281 281 281 279 276 274 273 272 271 271 270 269 266 264 263 261 261 262 261 261 261 263 263 263 264 263 262 262 261 261 263 264 264 264 265
282 283 284 284 284 283 283 282 282 282 282 280 279 276 274 273 273 272 270 269 267 265 264 263 263 263 261 262 263 264 264 264 263 263 263 263 262 261 262 264 265 265 266
282 282 283 283 284 283 283 283 283 282 281 281 280 277 274 273 273 272 272 270 269 268 266 265 264 265 264 263 263 264 264 264 264 264 265 265 264 263 264 265 266 267 267
282 282 282 282 282 282 283 283 283 283 282 281 279 277 275 274 274 273 272 270 269 269 267 267 267 267 266 265 264 265 265 265 265 265 266 266 266 265 265 266 267 268 268
283 283 282 281 281 281 282 282 282 284 283 281 279 277 275 275 275 275 274 271 270 270 269 269 269 268 267 266 266 266 266 266 266 267 267 267 268 268 268 268 268 268 269
285 285 283 280 280 281 282 281 281 283 282 281 280 278 276 276 277 278 277 275 273 272 271 270 269 269 269 268 267 267 267 266 267 268 269 269 269 270 270 270 270 270 269
285 284 282 281 280 279 280 281 281 282 282 282 281 279 278 278 278 278 278 277 276 275 274 272 271 271 270 269 269 268 268 268 269 270 270 271 272 272 272 272 271 271 270
284 283 283 282 280 278 279 280 281 282 283 284 284 282 280 280 280 280 279 279 278 277 275 273 272 272 271 271 271 271 271 271 271 271 273 273 274 274 274 274 274 274 273
283 282 283 282 279 278 278 279 280 281 283 284 284 283 282 281 282 282 282 280 279 277 277 275 274 273 273 273 272 272 272 272 273 273 275 276 276 276 276 276 277 277 277
284 283 282 281 280 279 278 278 279 281 284 286 285 285 284 284 285 285 283 281 278 278 278 277 276 276 276 275 274 274 274 274 274 275 276 277 278 278 278 279 279 279 279
285 284 283 281 280 280 279 277 278 281 284 286 286 286 285 285 285 285 284 282 280 279 278 277 277 277 277 277 277 277 276 277 277 277 278 279 280 280 280 281 281 281 281
284 283 282 280 279 280 281 279 279 281 283 286 287 287 287 286 286 286 286 284 282 281 280 280 279 279 279 279 279 279 279 279 280 280 280 281 283 283 283 282 282 282 282
282 281 282 281 279 280 280 279 280 281 283 285 285 286 287 287 286 286 285 285 285 284 283 281 281 280 279 280 281 282 282 282 283 283 283 284 284 284 284 284 283 283 282
281 280 281 280 280 281 282 281 281 282 284 284 285 285 285 286 287 287 285 285 285 284 283 282 282 281 281 282 283 284 285 285 286 286 287 287 286 286 285 285 284 283 282
279 279 280 280 280 282 282 282 281 281 283 285 285 285 284 285 286 286 285 285 285 284 282 282 282 283 283 284 286 286 286 286 287 288 289 288 287 287 287 286 285 284 283
278 279 279 280 280 281 282 282 282 282 282 284 285 286 285 286 286 284 284 286 285 284 284 283 282 283 284 285 287 288 289 289 289 289 290 289 288 288 287 287 286 284 283
277 278 278 278 279 280 282 283 283 283 284 285 285 285 286 287 287 286 286 287 286 285 284 284 284 284 285 286 287 289 290 290 290 290 291 291 291 289 288 288 287 286 286
277 277 277 277 278 279 281 283 285 285 285 286 285 285 286 287 288 288 287 287 286 286 286 286 286 286 286 287 288 290 290 290 290 291 292 292 291 290 289 289 288 288 288
277 277 277 277 278 279 281 283 284 286 286 286 286 285 286 287 288 288 288 287 287 286 287 287 287 287 288 288 289 290 290 290 290 291 293 293 292 291 290 289 289 289 289
277 278 279 278 279 280 281 283 284 286 286 286 286 286 287 287 288 288 288 288 287 287 287 288 289 290 290 289 290 290 290 290 290 291 292 293 292 292 291 290 290 290 290
277 278 279 280 280 281 282 284 285 286 286 286 285 285 286 287 287 287 287 287 287 288 288 289 290 290 290 291 291 291 290 291 292 292 292 292 292 292 292 291 291 291 290
279 279 280 280 281 282 283 284 285 285 286 286 286 285 286 286 287 287 287 287 288 288 289 290 290 290 290 291 292 292 292 292 293 293 293 293 292 292 293 293 292 292 291
279 279 279 280 282 282 283 284 285 285 285 286 286 285 286 287 287 287 288 288 288 289 289 290 290 291 291 291 291 291 292 293 293 294 294 294 294 294 294 294 293 293 291
279 279 279 280 281 282 283 284 284 285 285 285 285 286 286 286 287 287 288 289 290 290 290 291 292 292 292 292 292 292 292 293 294 294 295 296 296 296 296 295 294 293 292
279 279 279 280 280 281 282 283 284 284 284 285 286 286 286 286 286 287 287 289 290 291 291 292 293 293 292 292 292 292 293 294 295 296 297 297 296 297 296 296 295 294 294